Location: Laguna de la Cañada del Gallo
(40.3974°N, 5.2096°W)
Time: 03:01:17
(UTC+00:00)

Cosmos 1503 Rocket - Pass Details

Date: 18 April 2024
Orbit: 750 x 789 km, 74.0° (Epoch: 25 May)

Event Time Altitude Azimuth Distance (km) Brightness Sun altitude
Rises 20:33:35 0° 343° (NNW) 3,292 8.1 -16.6°
Reaches altitude 10° 20:36:01 10° 346° (NNW) 2,360 7.2 -17.0°
Maximum altitude 20:41:22 67° 69° (ENE) 856 4.0 -17.8°
Enters shadow 20:43:55 31° 143° (SE) 1,354 4.7 -18.2°
